User: anonymous   Login
Location: Newark
(35.0033°N, 81.0878°W)
Time: 08:50:43
(UTC+00:00)
Language:

Oscar 11 - Orbit

View from above orbital plane
View from above orbital plane
View from above satellite
View from above satellite

Ground track
Ground track

The orbit data is extracted from the following two-line orbital elements,

1 14781U 84021B   19287.63388945 +.00000080 +00000-0 +15916-4 0  9993
2 14781 097.6050 306.7351 0007108 297.1211 062.9278 14.83112092895247
Epoch (UTC): 14 October 2019 15:12:48
Eccentricity: 0.0007108
inclination: 97.6050°
perigee height: 614 km
apogee height: 624 km
right ascension of ascending node: 306.7351°
argument of perigee: 297.1211°
revolutions per day: 14.83112092
mean anomaly at epoch: 62.9278°
orbit number at epoch: 89524

The dashed part of the orbit path shows where the satellite is in the earth's shadow,  

DLR